Regional Weather Roundup
Issued by NWS

Home | Current Version | Previous Version | Graphics & Text | Print | Product List | Glossary On
Versions: 1 2 3 4 5 6 7 8 9 10 11 12 13 14 15 16 17 18 19 20 21 22 23 24 25 26 27 28 29 30 31 32 33 34 35 36 37 38 39 40 41 42 43 44 45 46 47 48 49 50
000
ASUS45 KCYS 031710
RWRWY

WYOMING REGIONAL WEATHER ROUNDUP
NATIONAL WEATHER SERVICE CHEYENNE WY
1000 AM MST TUE MAR 03 2015

NOTE:  "FAIR" INDICATES FEW OR NO CLOUDS BELOW 12,000 FEET
WITH NO SIGNIFICANT WEATHER AND/OR OBSTRUCTIONS TO VISIBILITY.

WYZ001-031800-
YELLOWSTONE NATIONAL PARK

CITY           SKY/WX    TMP DP  RH WIND       PRES   REMARKS
LK YELLOWSTONE   N/A      9  -4  55 VRB3      29.76S
W YELLOWSTONE  NOT AVBL

$$
WYZ002>013-054>058-071-098>099-031800-
NORTHERN WYOMING

CITY           SKY/WX    TMP DP  RH WIND       PRES   REMARKS
JACKSON        MOSUNNY   14  10  85 N14       29.76R WCI  -1
CODY           CLOUDY     7   1  78 N15       29.99S WCI -11
GREYBULL       LGT SNOW  14   6  70 NW22G28   30.03R WCI  -4
WORLAND        LGT SNOW  13   8  81 NW15      30.01S VSB 3/4 WCI  -3
SHERIDAN       CLOUDY     9   2  73 NW20      30.07S WCI -10
BUFFALO        CLOUDY     8   2  76 N22G33    29.96S HAZE    WCI -12
GILLETTE       LGT SNOW  10   4  76 N14       29.99F WCI  -6
HULETT         CLOUDY    12   3  67 NW12G17   29.99F WCI  -2
NEWCASTLE      FAIR      14   1  57 NW17G23   29.97S WCI  -3

$$
WYZ014>020-022>026-101>103-031800-
CENTRAL WYOMING

CITY           SKY/WX    TMP DP  RH WIND       PRES   REMARKS
BIG PINEY      LGT SNOW  19  14  81 S6        29.72R WCI  11
PINEDALE       LGT SNOW  19  14  79 SE9       29.72R WCI   9
DUBOIS         LGT SNOW   9   3  78 SE8       29.79R VSB 3/4 WCI  -4
LANDER         SNOW      11   7  84 N8        29.90S VSB 1/4 WCI  -1
RIVERTON       LGT SNOW  11   6  81 E14       29.91S VSB 1   WCI  -5
CASPER         CLOUDY     8   2  76 NE9       29.94F WCI  -5
DOUGLAS        LGT SNOW  11   4  73 NW13      29.97F WCI  -4

$$
WYZ021-027>030-104>119-031800-
SOUTHERN WYOMING

CITY           SKY/WX    TMP DP  RH WIND       PRES   REMARKS
EVANSTON       SNOW      23  21  92 NW13      29.72  VSB 1/2 WCI  11
KEMMERER       CLOUDY    27  19  74 W15       29.70S WCI  15
FORT BRIDGER   HVY SNOW  26  26  99 NW8       29.74R VSB<1/4 WCI  17
ROCK SPRINGS   SNOW      13   9  84 NE14      29.74S VSB 1/4 WCI  -2
DIXON          FAIR      29  21  74 CALM      29.77F
RAWLINS        CLOUDY    13   6  74 NE10      29.78F WCI   0
SARATOGA       LGT SNOW  14   9  79 CALM      29.77S
LARAMIE        FAIR      15  11  83 CALM      29.73F
CHEYENNE       FLURRIES  12   4  70 N15G26    29.84R WCI  -4
TORRINGTON     LGT SNOW  15   7  70 N15G24    29.98S WCI   0
PINE BLUFFS    LGT SNOW  18  10  73 N20       29.91R WCI   1

$$


USA.gov is the U.S. government's official web portal to all federal, state and local government web resources and services.